| time (UTC) | temp F | wind direction | speed knots | gust knots | rain 1hr in | rain 24hr in | rain mn in | humidity % | barometer mb |
| 20260506221551 | 84 | 53 | 4.3 | 10.4 | 0.00 | 0.00 | 0.00 | 71 | 1008.4 |
| 20260506221511 | 84 | 27 | 5.2 | 10.4 | 0.00 | 0.00 | 0.00 | 71 | 1010.5 |
| 20260506220058 | 83 | 352 | 6.1 | 14.8 | 0.00 | 0.00 | 0.00 | 70 | 1008.3 |
| 20260506220012 | 83 | 5 | 4.3 | 14.8 | 0.00 | 0.00 | 0.00 | 71 | 1010.4 |
| 20260506214547 | 85 | 19 | 6.1 | 14.8 | 0.00 | 0.00 | 0.00 | 67 | 1008.3 |
| 20260506214511 | 85 | 328 | 6.1 | 14.8 | 0.00 | 0.00 | 0.00 | 68 | 1010.4 |
| 20260506213044 | 88 | 42 | 3.5 | 8.7 | 0.00 | 0.00 | 0.00 | 65 | 1008.2 |
| 20260506213019 | 88 | 49 | 2.6 | 8.7 | 0.00 | 0.00 | 0.00 | 66 | 1010.3 |
| 20260506211547 | 87 | 78 | 0.9 | 7.0 | 0.00 | 0.00 | 0.00 | 65 | 1008.2 |
| 20260506211516 | 87 | 80 | 0.9 | 7.0 | 0.00 | 0.00 | 0.00 | 66 | 1010.3 |
| 20260506210059 | 88 | 138 | 3.5 | 9.6 | 0.00 | 0.00 | 0.00 | 66 | 1008.2 |
| 20260506210010 | 88 | 46 | 3.5 | 9.6 | 0.00 | 0.00 | 0.00 | 66 | 1010.4 |
| 20260506204550 | 88 | 16 | 1.7 | 5.2 | 0.00 | 0.00 | 0.00 | 66 | 1008.4 |
| 20260506204507 | 87 | 17 | 1.7 | 5.2 | 0.00 | 0.00 | 0.00 | 69 | 1010.6 |
| 20260506203130 | 87 | 0 | 2.6 | 7.0 | 0.00 | 0.00 | 0.00 | 65 | 1008.5 |
| 20260506203006 | 87 | 83 | 1.7 | 7.0 | 0.00 | 0.00 | 0.00 | 66 | 1010.7 |
| 20260506201546 | 87 | 55 | 0.0 | 6.1 | 0.00 | 0.00 | 0.00 | 67 | 1008.7 |
| 20260506201503 | 87 | 119 | 0.0 | 6.1 | 0.00 | 0.00 | 0.00 | 68 | 1010.8 |
| 20260506200100 | 86 | 28 | 0.9 | 7.0 | 0.00 | 0.00 | 0.00 | 71 | 1011.0 |
| 20260506200050 | 86 | 28 | 1.7 | 7.0 | 0.00 | 0.00 | 0.00 | 70 | 1009.1 |
| 20260506194558 | 86 | 123 | 1.7 | 6.1 | 0.00 | 0.00 | 0.00 | 71 | 1011.2 |
| 20260506194550 | 86 | 118 | 1.7 | 6.1 | 0.00 | 0.00 | 0.00 | 71 | 1009.1 |
| 20260506193056 | 85 | 55 | 1.7 | 7.0 | 0.00 | 0.00 | 0.00 | 74 | 1011.2 |
| 20260506193041 | 85 | 52 | 1.7 | 7.0 | 0.00 | 0.00 | 0.00 | 74 | 1009.2 |
| 20260506191554 | 84 | 153 | 1.7 | 5.2 | 0.00 | 0.00 | 0.00 | 75 | 1011.3 |
| 20260506191544 | 84 | 104 | 0.9 | 7.0 | 0.00 | 0.00 | 0.00 | 75 | 1009.4 |
| 20260506190053 | 83 | 45 | 0.9 | 7.0 | 0.00 | 0.00 | 0.00 | 76 | 1011.4 |
| 20260506190050 | 83 | 44 | 2.6 | 7.0 | 0.00 | 0.00 | 0.00 | 76 | 1009.4 |
| 20260506184555 | 83 | 117 | 3.5 | 7.8 | 0.00 | 0.00 | 0.00 | 77 | 1011.6 |
| 20260506183047 | 82 | 109 | 3.5 | 7.8 | 0.00 | 0.00 | 0.00 | 77 | 1012.0 |
| 20260506183045 | 82 | 109 | 4.3 | 7.8 | 0.00 | 0.00 | 0.00 | 76 | 1009.9 |
| 20260506181545 | 82 | 44 | 2.6 | 7.8 | 0.00 | 0.00 | 0.00 | 79 | 1012.1 |
| 20260506181542 | 82 | 32 | 1.7 | 6.1 | 0.00 | 0.00 | 0.00 | 79 | 1010.1 |
| 20260506180045 | 82 | 82 | 4.3 | 8.7 | 0.00 | 0.00 | 0.00 | 78 | 1010.1 |
| 20260506174610 | 81 | 66 | 3.5 | 8.7 | 0.00 | 0.00 | 0.00 | 80 | 1010.2 |
| 20260506174541 | 81 | 67 | 3.5 | 8.7 | 0.00 | 0.00 | 0.00 | 80 | 1012.4 |
| 20260506173054 | 81 | 51 | 3.5 | 8.7 | 0.00 | 0.00 | 0.00 | 82 | 1010.1 |
| 20260506173050 | 81 | 37 | 3.5 | 8.7 | 0.00 | 0.00 | 0.00 | 82 | 1012.3 |
| 20260506171543 | 80 | 13 | 3.5 | 7.8 | 0.00 | 0.00 | 0.00 | 82 | 1010.3 |
| 20260506171538 | 80 | 19 | 2.6 | 7.8 | 0.00 | 0.00 | 0.00 | 83 | 1012.6 |
| 20260506170046 | 80 | 91 | 1.7 | 7.0 | 0.00 | 0.00 | 0.00 | 82 | 1010.2 |
| 20260506170036 | 80 | 91 | 1.7 | 7.0 | 0.00 | 0.00 | 0.00 | 83 | 1012.7 |
| 20260506164547 | 79 | 37 | 0.0 | 3.5 | 0.00 | 0.00 | 0.00 | 84 | 1010.3 |
| 20260506164533 | 79 | 37 | 0.9 | 3.5 | 0.00 | 0.00 | 0.00 | 85 | 1012.6 |
| 20260506163103 | 79 | 36 | 2.6 | 5.2 | 0.00 | 0.00 | 0.00 | 86 | 1010.3 |
| 20260506163050 | 79 | 36 | 1.7 | 5.2 | 0.00 | 0.00 | 0.00 | 87 | 1012.5 |
| 20260506161626 | 78 | 13 | 1.7 | 4.3 | 0.00 | 0.00 | 0.00 | 90 | 1012.5 |
| 20260506161542 | 78 | 5 | 1.7 | 4.3 | 0.00 | 0.00 | 0.00 | 89 | 1010.2 |
| 20260506160051 | 76 | 40 | 1.7 | 3.5 | 0.00 | 0.00 | 0.00 | 91 | 1010.0 |
| 20260506160023 | 76 | 41 | 1.7 | 3.5 | 0.00 | 0.00 | 0.00 | 92 | 1012.3 |
| 20260506154554 | 76 | 0 | 0.0 | 2.6 | 0.00 | 0.00 | 0.00 | 90 | 1010.0 |
| 20260506154531 | 76 | 50 | 0.9 | 2.6 | 0.00 | 0.00 | 0.00 | 91 | 1012.3 |
| 20260506153047 | 76 | 80 | 0.9 | 3.5 | 0.00 | 0.00 | 0.00 | 90 | 1009.8 |
| 20260506153025 | 76 | 80 | 1.7 | 3.5 | 0.00 | 0.00 | 0.00 | 91 | 1012.2 |
| 20260506151544 | 76 | 58 | 0.9 | 2.6 | 0.00 | 0.00 | 0.00 | 89 | 1009.5 |
| 20260506151520 | 76 | 63 | 0.9 | 2.6 | 0.00 | 0.00 | 0.00 | 90 | 1012.0 |
| 20260506150042 | 76 | 52 | 0.9 | 3.5 | 0.00 | 0.00 | 0.00 | 89 | 1009.4 |
| 20260506150019 | 76 | 51 | 0.0 | 3.5 | 0.00 | 0.00 | 0.00 | 90 | 1011.7 |
| 20260506144547 | 76 | 46 | 1.7 | 3.5 | 0.00 | 0.00 | 0.00 | 89 | 1009.4 |
| 20260506144518 | 76 | 46 | 1.7 | 3.5 | 0.00 | 0.00 | 0.00 | 90 | 1011.7 |
| 20260506143042 | 76 | 0 | 0.0 | 4.3 | 0.00 | 0.00 | 0.00 | 90 | 1009.1 |
| 20260506143016 | 76 | 124 | 0.0 | 2.6 | 0.00 | 0.00 | 0.00 | 90 | 1011.2 |
| 20260506141549 | 76 | 126 | 2.6 | 6.1 | 0.00 | 0.00 | 0.00 | 89 | 1008.9 |
| 20260506141514 | 76 | 119 | 2.6 | 6.1 | 0.00 | 0.00 | 0.00 | 90 | 1011.1 |
| 20260506140049 | 76 | 141 | 1.7 | 7.0 | 0.00 | 0.00 | 0.00 | 90 | 1008.6 |
| 20260506140019 | 76 | 159 | 0.9 | 7.0 | 0.00 | 0.00 | 0.00 | 91 | 1010.7 |
| 20260506134542 | 75 | 125 | 3.5 | 8.7 | 0.00 | 0.00 | 0.00 | 91 | 1008.1 |
| 20260506134510 | 75 | 134 | 4.3 | 7.0 | 0.00 | 0.00 | 0.00 | 91 | 1010.5 |
| 20260506133049 | 75 | 91 | 1.7 | 7.0 | 0.00 | 0.00 | 0.00 | 91 | 1008.2 |
| 20260506133009 | 75 | 146 | 1.7 | 5.2 | 0.00 | 0.00 | 0.00 | 92 | 1010.2 |
| 20260506131544 | 75 | 152 | 1.7 | 7.0 | 0.00 | 0.00 | 0.00 | 92 | 1008.2 |
| 20260506131517 | 75 | 137 | 1.7 | 6.1 | 0.00 | 0.00 | 0.00 | 93 | 1010.2 |
| 20260506130042 | 75 | 115 | 3.5 | 8.7 | 0.00 | 0.00 | 0.00 | 92 | 1007.9 |
| 20260506130007 | 74 | 145 | 3.5 | 8.7 | 0.00 | 0.00 | 0.00 | 93 | 1009.9 |
| 20260506124546 | 75 | 102 | 1.7 | 7.0 | 0.00 | 0.00 | 0.00 | 93 | 1007.9 |
| 20260506124505 | 75 | 103 | 1.7 | 7.0 | 0.00 | 0.00 | 0.00 | 93 | 1009.9 |
| 20260506123052 | 75 | 148 | 2.6 | 7.0 | 0.00 | 0.00 | 0.00 | 93 | 1007.8 |
| 20260506123009 | 75 | 163 | 2.6 | 7.0 | 0.00 | 0.00 | 0.00 | 93 | 1009.8 |
| 20260506121608 | 75 | 130 | 3.5 | 5.2 | 0.00 | 0.00 | 0.00 | 93 | 1010.0 |
| 20260506121554 | 75 | 106 | 1.7 | 4.3 | 0.00 | 0.00 | 0.00 | 92 | 1007.8 |
| 20260506120053 | 74 | 142 | 0.9 | 7.0 | 0.00 | 0.00 | 0.00 | 93 | 1010.1 |
| 20260506120047 | 75 | 148 | 1.7 | 7.0 | 0.00 | 0.00 | 0.00 | 92 | 1007.8 |
| 20260506114553 | 75 | 178 | 0.9 | 2.6 | 0.00 | 0.00 | 0.00 | 92 | 1010.0 |
| 20260506114549 | 75 | 178 | 0.9 | 2.6 | 0.00 | 0.00 | 0.00 | 92 | 1007.8 |
| 20260506113052 | 75 | 180 | 1.7 | 3.5 | 0.00 | 0.00 | 0.00 | 92 | 1009.9 |
| 20260506113044 | 75 | 180 | 1.7 | 3.5 | 0.00 | 0.00 | 0.00 | 92 | 1007.7 |
| 20260506111551 | 75 | 166 | 2.6 | 5.2 | 0.00 | 0.00 | 0.00 | 92 | 1010.0 |
| 20260506111542 | 75 | 158 | 2.6 | 5.2 | 0.00 | 0.00 | 0.00 | 92 | 1007.7 |
| 20260506110051 | 75 | 123 | 0.9 | 2.6 | 0.00 | 0.00 | 0.00 | 92 | 1010.0 |
| 20260506110047 | 75 | 123 | 0.9 | 2.6 | 0.00 | 0.00 | 0.00 | 91 | 1007.7 |
| 20260506104550 | 75 | 153 | 1.7 | 4.3 | 0.00 | 0.00 | 0.00 | 92 | 1009.7 |
| 20260506103049 | 75 | 138 | 0.9 | 3.5 | 0.00 | 0.00 | 0.00 | 92 | 1009.7 |
| 20260506103043 | 75 | 0 | 0.0 | 4.3 | 0.00 | 0.00 | 0.00 | 91 | 1007.4 |
| 20260506101601 | 75 | 145 | 1.7 | 7.0 | 0.00 | 0.00 | 0.00 | 92 | 1009.7 |
| 20260506101544 | 75 | 0 | 1.7 | 7.0 | 0.00 | 0.00 | 0.00 | 91 | 1007.5 |
| 20260506100047 | 75 | 166 | 1.7 | 6.1 | 0.00 | 0.00 | 0.00 | 92 | 1009.6 |
| 20260506094550 | 75 | 123 | 2.6 | 7.8 | 0.00 | 0.00 | 0.00 | 92 | 1007.5 |
| 20260506094548 | 75 | 126 | 3.5 | 7.0 | 0.00 | 0.00 | 0.00 | 92 | 1009.7 |
| 20260506093051 | 75 | 175 | 1.7 | 9.6 | 0.00 | 0.00 | 0.00 | 92 | 1007.4 |
| 20260506093045 | 75 | 176 | 2.6 | 9.6 | 0.00 | 0.00 | 0.00 | 92 | 1009.7 |
| 20260506091545 | 75 | 148 | 1.7 | 6.1 | 0.00 | 0.00 | 0.00 | 92 | 1009.5 |
| 20260506090051 | 75 | 167 | 1.7 | 8.7 | 0.00 | 0.00 | 0.00 | 92 | 1009.5 |
| 20260506090049 | 75 | 167 | 2.6 | 9.6 | 0.00 | 0.00 | 0.00 | 91 | 1007.4 |
| 20260506084551 | 75 | 0 | 3.5 | 10.4 | 0.00 | 0.00 | 0.00 | 91 | 1007.6 |
| 20260506084545 | 75 | 109 | 4.3 | 10.4 | 0.00 | 0.00 | 0.00 | 91 | 1009.8 |
| 20260506083047 | 75 | 165 | 1.7 | 7.0 | 0.00 | 0.00 | 0.00 | 90 | 1007.6 |
| 20260506083039 | 75 | 166 | 1.7 | 7.0 | 0.00 | 0.00 | 0.00 | 91 | 1009.9 |
| 20260506081549 | 75 | 155 | 2.6 | 9.6 | 0.00 | 0.00 | 0.00 | 90 | 1007.6 |
| 20260506081542 | 75 | 153 | 2.6 | 8.7 | 0.00 | 0.00 | 0.00 | 91 | 1010.0 |
| 20260506073046 | 76 | 175 | 2.6 | 9.6 | 0.00 | 0.00 | 0.00 | 90 | 1007.9 |
| 20260506073034 | 76 | 161 | 1.7 | 7.8 | 0.00 | 0.00 | 0.00 | 90 | 1010.0 |
| 20260506071544 | 76 | 145 | 1.7 | 7.8 | 0.00 | 0.00 | 0.00 | 90 | 1008.0 |
| 20260506071532 | 76 | 144 | 2.6 | 7.8 | 0.00 | 0.00 | 0.00 | 90 | 1010.0 |
| 20260506061548 | 76 | 178 | 2.6 | 12.2 | 0.00 | 0.00 | 0.00 | 90 | 1008.0 |
| 20260506061528 | 76 | 178 | 2.6 | 12.2 | 0.00 | 0.00 | 0.00 | 90 | 1010.2 |
| 20260506044544 | 77 | 136 | 4.3 | 10.4 | 0.00 | 0.00 | 0.00 | 88 | 1007.8 |
| 20260506044517 | 77 | 129 | 4.3 | 10.4 | 0.00 | 0.00 | 0.00 | 88 | 1010.0 |
| 20260506043043 | 77 | 94 | 3.5 | 9.6 | 0.00 | 0.00 | 0.00 | 88 | 1007.7 |
| 20260506043014 | 77 | 143 | 2.6 | 9.6 | 0.00 | 0.00 | 0.00 | 88 | 1010.0 |
| 20260506041556 | 77 | 115 | 3.5 | 7.8 | 0.00 | 0.00 | 0.00 | 87 | 1007.5 |
| 20260506041523 | 78 | 144 | 3.5 | 7.8 | 0.00 | 0.00 | 0.00 | 87 | 1009.8 |
| 20260506040042 | 78 | 139 | 4.3 | 12.2 | 0.00 | 0.00 | 0.00 | 86 | 1007.3 |
| 20260506040013 | 78 | 142 | 3.5 | 12.2 | 0.00 | 0.00 | 0.00 | 87 | 1009.6 |
| 20260506034613 | 78 | 159 | 5.2 | 10.4 | 0.00 | 0.00 | 0.00 | 86 | 1009.5 |
| 20260506034551 | 78 | 114 | 6.1 | 13.0 | 0.00 | 0.00 | 0.00 | 85 | 1007.2 |
| 20260506033043 | 79 | 136 | 6.1 | 12.2 | 0.00 | 0.00 | 0.00 | 85 | 1007.0 |
| 20260506033011 | 79 | 138 | 5.2 | 12.2 | 0.00 | 0.00 | 0.00 | 85 | 1009.3 |
| 20260506031545 | 79 | 143 | 5.2 | 11.3 | 0.00 | 0.00 | 0.00 | 84 | 1006.9 |
| 20260506031511 | 79 | 101 | 6.1 | 9.6 | 0.00 | 0.00 | 0.00 | 84 | 1009.3 |
| 20260506030049 | 80 | 157 | 3.5 | 8.7 | 0.00 | 0.00 | 0.00 | 83 | 1006.7 |
| 20260506030010 | 80 | 134 | 3.5 | 8.7 | 0.00 | 0.00 | 0.00 | 83 | 1009.0 |
| 20260506024543 | 81 | 123 | 6.1 | 11.3 | 0.00 | 0.00 | 0.00 | 82 | 1006.5 |
| 20260506024509 | 81 | 139 | 5.2 | 11.3 | 0.00 | 0.00 | 0.00 | 82 | 1008.8 |
| 20260506023102 | 82 | 141 | 5.2 | 12.2 | 0.00 | 0.00 | 0.00 | 80 | 1006.3 |
| 20260506023008 | 82 | 124 | 5.2 | 12.2 | 0.00 | 0.00 | 0.00 | 80 | 1008.6 |
| 20260506021544 | 82 | 126 | 4.3 | 8.7 | 0.00 | 0.00 | 0.00 | 78 | 1006.2 |
| 20260506021508 | 82 | 131 | 3.5 | 8.7 | 0.00 | 0.00 | 0.00 | 78 | 1008.5 |
| 20260506020051 | 83 | 127 | 5.2 | 9.6 | 0.00 | 0.00 | 0.00 | 76 | 1006.2 |
| 20260506020007 | 83 | 79 | 5.2 | 9.6 | 0.00 | 0.00 | 0.00 | 77 | 1008.4 |
| 20260506014545 | 83 | 114 | 5.2 | 8.7 | 0.00 | 0.00 | 0.00 | 75 | 1005.7 |
| 20260506014507 | 83 | 138 | 5.2 | 8.7 | 0.00 | 0.00 | 0.00 | 76 | 1007.9 |
| 20260506013052 | 84 | 82 | 3.5 | 7.8 | 0.00 | 0.00 | 0.00 | 75 | 1005.4 |
| 20260506013018 | 84 | 107 | 2.6 | 7.0 | 0.00 | 0.00 | 0.00 | 75 | 1007.7 |
| 20260506011548 | 84 | 104 | 5.2 | 10.4 | 0.00 | 0.00 | 0.00 | 74 | 1005.3 |
| 20260506011520 | 84 | 74 | 4.3 | 10.4 | 0.00 | 0.00 | 0.00 | 74 | 1007.5 |
| 20260506010048 | 85 | 126 | 3.5 | 7.0 | 0.00 | 0.00 | 0.00 | 73 | 1005.0 |
| 20260506010008 | 85 | 113 | 3.5 | 7.0 | 0.00 | 0.00 | 0.00 | 73 | 1007.3 |
| 20260506004543 | 85 | 86 | 1.7 | 5.2 | 0.00 | 0.00 | 0.00 | 72 | 1005.0 |
| 20260506004505 | 85 | 86 | 1.7 | 4.3 | 0.00 | 0.00 | 0.00 | 72 | 1007.1 |
| 20260506003042 | 86 | 113 | 2.6 | 6.1 | 0.00 | 0.00 | 0.00 | 71 | 1004.9 |
| 20260506003003 | 86 | 137 | 2.6 | 6.1 | 0.00 | 0.00 | 0.00 | 71 | 1007.2 |
| 20260506001553 | 86 | 98 | 3.5 | 7.0 | 0.00 | 0.00 | 0.00 | 70 | 1004.9 |
| 20260506001503 | 86 | 121 | 3.5 | 7.0 | 0.00 | 0.00 | 0.00 | 71 | 1007.2 |
| 20260506000057 | 86 | 0 | 0.0 | 1.7 | 0.00 | 0.00 | 0.00 | 71 | 1004.8 |
| 20260506000002 | 86 | 184 | 0.0 | 0.0 | 0.00 | 0.00 | 0.00 | 71 | 1007.0 |
| 20260505234541 | 86 | 180 | 0.0 | 4.3 | 0.00 | 0.00 | 0.00 | 70 | 1004.8 |
| 20260505234503 | 86 | 180 | 0.0 | 4.3 | 0.00 | 0.00 | 0.00 | 71 | 1007.0 |
| 20260505233050 | 86 | 180 | 1.7 | 5.2 | 0.00 | 0.00 | 0.00 | 70 | 1004.8 |
| 20260505233001 | 86 | 180 | 1.7 | 3.5 | 0.00 | 0.00 | 0.00 | 70 | 1007.1 |
| 20260505231546 | 86 | 0 | 0.0 | 7.0 | 0.00 | 0.00 | 0.00 | 70 | 1004.7 |
| 20260505231501 | 86 | 169 | 0.0 | 7.0 | 0.00 | 0.00 | 0.00 | 71 | 1007.1 |
| 20260505230122 | 86 | 180 | 0.0 | 3.5 | 0.00 | 0.00 | 0.00 | 70 | 1007.0 |
| 20260505230110 | 86 | 180 | 0.0 | 4.3 | 0.00 | 0.00 | 0.00 | 69 | 1004.8 |
| 20260505224600 | 87 | 153 | 1.7 | 8.7 | 0.00 | 0.00 | 0.00 | 68 | 1007.1 |
| 20260505224543 | 87 | 119 | 0.9 | 8.7 | 0.00 | 0.00 | 0.00 | 69 | 1004.8 |
| 20260505223059 | 87 | 157 | 3.5 | 7.8 | 0.00 | 0.00 | 0.00 | 70 | 1007.1 |
| 20260505223052 | 87 | 192 | 2.6 | 7.8 | 0.00 | 0.00 | 0.00 | 69 | 1004.7 |